Sarasota, FL

9:44 AM EDT on March 25, 2017 (GMT -0400)
Sarasota-bradenton

Weather History for KSRQ - April, 2014

Change the Weather History Date:

Sunday, April 20, 2014

  Actual Average Record
Temperature  
Mean Temperature 68 °F 72 °F  
Max Temperature 75 °F 81 °F 92 °F (1965)
Min Temperature 60 °F 62 °F 42 °F (1936)
Degree Days  
Heating Degree Days 0 0  
Month to date heating degree days 0 8  
Since 1 July heating degree days 345 475  
Cooling Degree Days 3 7  
Month to date cooling degree days 124 116  
Year to date cooling degree days 326 320  
Growing Degree Days 18 (Base 50)    
Moisture  
Dew Point 59 °F    
Average Humidity 77    
Maximum Humidity 97    
Minimum Humidity 54    
Precipitation  
Precipitation 0.00 in 0.09 in 2.08 in (1960)
Month to date precipitation 1.24 1.72  
Year to date precipitation 11.33 10.77  
Sea Level Pressure  
Sea Level Pressure 30.03 in    
Wind  
Wind Speed 8 mph (North)    
Max Wind Speed 17 mph    
Max Gust Speed 20 mph    
Visibility 10 miles    
Events      
T = Trace of Precipitation, MM = Missing Value Source: NWS Daily Summary

Daily Weather History Graph

Daily Weather History Graph

Search for Another Location

Airport or City:

Trip Planner

Search our weather history database for the weather conditions in past years. The results will help you decide how hot, cold, wet, or windy it might be!

Date:

Astronomy

Apr. 20, 2014 Rise Set
Actual Time 7:00 AM EDT 7:57 PM EDT
Civil Twilight 6:36 AM EDT 8:21 PM EDT
Nautical Twilight 6:08 AM EDT 8:50 PM EDT
Astronomical Twilight 5:39 AM EDT 9:19 PM EDT
Moon 12:25 AM EDT (4/20) 11:30 AM EDT (4/20)
Length of Visible Light 13h 44m
Length of Day
12h 56m
Waning Gibbous, 69% of the Moon is Illuminated
Apr 20
Waning Gibbous
Apr 22
Last Quarter
Apr 29
New
May 6
First Quarter
May 14
Full

Hourly Weather History & Observations

Time (EDT) Temp. Dew Point Humidity Pressure Visibility Wind Dir Wind Speed Gust Speed Precip Events Conditions
12:02 AM 64.0 °F 57.9 °F 80% 30.00 in 10.0 mi NW 8.1 mph - N/A   Overcast
12:11 AM 64.9 °F 57.9 °F 78% 30.00 in 10.0 mi NNW 8.1 mph - N/A   Overcast
12:20 AM 64.9 °F 57.9 °F 78% 30.01 in 10.0 mi NNW 10.4 mph - N/A   Overcast
12:53 AM 64.9 °F 59.0 °F 81% 30.00 in 10.0 mi North 5.8 mph - N/A   Overcast
1:53 AM 63.0 °F 59.0 °F 87% 29.99 in 10.0 mi NNW 5.8 mph - N/A   Mostly Cloudy
2:21 AM 63.0 °F 60.1 °F 90% 29.98 in 10.0 mi NNW 4.6 mph - N/A   Mostly Cloudy
2:53 AM 63.0 °F 60.1 °F 90% 29.98 in 10.0 mi North 5.8 mph - N/A   Overcast
3:09 AM 62.1 °F 59.0 °F 90% 29.97 in 10.0 mi NE 3.5 mph - N/A   Mostly Cloudy
3:26 AM 62.1 °F 59.0 °F 90% 29.97 in 10.0 mi Calm Calm - N/A   Partly Cloudy
3:53 AM 61.0 °F 59.0 °F 93% 29.97 in 10.0 mi Calm Calm - N/A   Clear
4:53 AM 61.0 °F 59.0 °F 93% 29.98 in 10.0 mi Calm Calm - N/A   Overcast
5:53 AM 63.0 °F 60.1 °F 90% 29.99 in 10.0 mi Calm Calm - N/A   Overcast
6:30 AM 63.0 °F 60.1 °F 90% 30.00 in 10.0 mi North 5.8 mph - N/A   Overcast
6:53 AM 64.0 °F 60.1 °F 87% 30.01 in 10.0 mi North 5.8 mph - N/A   Overcast
7:53 AM 64.0 °F 60.1 °F 87% 30.02 in 10.0 mi NNE 8.1 mph - N/A   Overcast
8:53 AM 64.9 °F 60.1 °F 84% 30.05 in 10.0 mi ENE 8.1 mph - N/A   Mostly Cloudy
9:53 AM 66.9 °F 60.1 °F 79% 30.05 in 10.0 mi NNE 6.9 mph - N/A   Overcast
10:01 AM 69.1 °F 61.0 °F 75% 30.05 in 10.0 mi NNE 6.9 mph - N/A   Overcast
10:11 AM 70.0 °F 60.1 °F 71% 30.05 in 10.0 mi North 6.9 mph - N/A   Overcast
10:45 AM 72.0 °F 59.0 °F 64% 30.06 in 10.0 mi NE 10.4 mph - N/A   Mostly Cloudy
10:53 AM 71.1 °F 59.0 °F 66% 30.06 in 10.0 mi NNE 9.2 mph - N/A   Mostly Cloudy
11:50 AM 71.6 °F 59.0 °F 64% 30.06 in 10.0 mi North 8.1 mph - N/A   Overcast
11:53 AM 71.1 °F 57.9 °F 63% 30.06 in 10.0 mi North 8.1 mph - N/A   Overcast
12:15 PM 70.0 °F 57.9 °F 65% 30.06 in 10.0 mi NNW 6.9 mph - N/A   Overcast
12:53 PM 72.0 °F 59.0 °F 64% 30.06 in 10.0 mi NNW 9.2 mph - N/A   Overcast
1:53 PM 73.0 °F 57.9 °F 59% 30.05 in 10.0 mi North 8.1 mph - N/A   Overcast
2:53 PM 75.0 °F 57.9 °F 55% 30.04 in 10.0 mi Variable 5.8 mph - N/A   Overcast
3:20 PM 72.0 °F 60.1 °F 66% 30.04 in 10.0 mi NW 13.8 mph - N/A   Overcast
3:42 PM 73.0 °F 60.1 °F 64% 30.03 in 10.0 mi NW 13.8 mph - N/A   Overcast
3:53 PM 72.0 °F 60.1 °F 66% 30.03 in 10.0 mi WNW 16.1 mph - N/A   Overcast
4:53 PM 73.9 °F 60.1 °F 62% 30.02 in 10.0 mi WNW 15.0 mph - N/A   Scattered Clouds
5:53 PM 73.0 °F 60.1 °F 64% 30.03 in 10.0 mi NNW 9.2 mph 17.3 mph N/A   Clear
6:53 PM 71.1 °F 60.1 °F 68% 30.02 in 10.0 mi NW 10.4 mph - N/A   Clear
7:53 PM 66.9 °F 59.0 °F 76% 30.03 in 10.0 mi NNW 13.8 mph - N/A   Clear
8:53 PM 64.9 °F 59.0 °F 81% 30.05 in 10.0 mi NNW 9.2 mph - N/A   Clear
9:53 PM 64.9 °F 59.0 °F 81% 30.06 in 10.0 mi North 6.9 mph - N/A   Clear
10:53 PM 64.0 °F 59.0 °F 84% 30.07 in 10.0 mi North 5.8 mph - N/A   Clear
11:53 PM 64.9 °F 60.1 °F 84% 30.06 in 10.0 mi North 6.9 mph - N/A   Clear